Location: Piedmont
(45.8748°N, 74.1254°W)
Time: 14:53:20
(UTC+00:00)

Envisat - Visible Passes

Search period start: 01 December 2021 00:00
Search period end: 11 December 2021 00:00
Orbit: 764 x 766 km, 98.2° (Epoch: 01 December)

Date Brightness Start Highest point End Pass type
(mag) Time Alt. Az. Time Alt. Az. Time Alt. Az.
01 Dec 5.0 09:07:00 10° NE 09:11:15 26° E 09:15:28 10° SSE visible
01 Dec 3.3 10:45:38 10° N 10:50:26 43° WNW 10:55:11 10° SW visible
01 Dec 5.5 22:03:26 10° SSW 22:07:37 26° W 22:11:49 10° NW visible
02 Dec 6.0 08:31:57 10° ENE 08:33:58 12° E 08:35:59 10° ESE visible
02 Dec 2.9 10:08:34 10° NNE 10:13:41 88° WNW 10:18:46 10° SSW visible
03 Dec 4.1 09:31:52 10° NNE 09:36:45 44° E 09:41:34 10° S visible
03 Dec 3.9 11:11:20 10° N 11:15:32 27° WNW 11:19:43 10° WSW visible
03 Dec 6.0 22:30:17 10° SW 22:33:11 15° W 22:36:07 10° NW visible
04 Dec 5.3 08:55:46 10° NE 08:59:36 21° E 09:03:24 10° SE visible
04 Dec 3.1 10:33:59 10° N 10:38:56 53° WNW 10:43:51 10° SSW visible
04 Dec 5.1 21:51:27 10° SSW 21:55:57 32° W 22:00:30 10° NNW visible
05 Dec 3.1 09:57:01 10° NNE 10:02:07 74° ESE 10:07:11 10° S visible
05 Dec 4.4 11:37:21 10° NNW 11:40:33 17° WNW 11:43:44 10° W visible
06 Dec 4.5 09:20:28 10° NNE 09:25:07 35° E 09:29:44 10° SSE visible
06 Dec 3.6 10:59:34 10° N 11:04:04 32° WNW 11:08:33 10° SW visible
06 Dec 5.8 22:17:55 10° SW 22:21:30 19° W 22:25:06 10° NW visible
07 Dec 5.6 08:44:40 10° NE 08:47:55 17° E 08:51:08 10° SE visible
07 Dec 2.9 10:22:21 10° N 10:27:24 67° WNW 10:32:26 10° SSW visible
07 Dec 4.6 21:39:35 10° SSW 21:44:20 40° W 21:49:06 10° NNW visible
08 Dec 3.5 09:45:30 10° NNE 09:50:32 59° E 09:55:33 10° S visible
08 Dec 4.2 11:25:26 10° NNW 11:29:08 21° WNW 11:32:49 10° WSW visible
08 Dec 6.3 22:45:49 10° WSW 22:47:09 11° W 22:48:29 10° WNW visible
09 Dec 4.9 09:09:07 10° NE 09:13:29 28° E 09:17:49 10° SSE visible
09 Dec 3.4 10:47:51 10° N 10:52:35 40° WNW 10:57:18 10° SW visible
09 Dec 5.6 22:05:46 10° SW 22:09:50 24° W 22:13:55 10° NW visible
10 Dec 5.9 08:33:49 10° ENE 08:36:12 13° E 08:38:35 10° ESE visible
10 Dec 2.8 10:10:45 10° NNE 10:15:52 83° WNW 10:20:57 10° SSW visible
10 Dec 4.6 11:51:48 10° NNW 11:54:05 13° NW 11:56:21 10° W visible
